Time,TemperatureF,DewpointF,PressureIn,WindDirection,WindDirectionDegrees,WindSpeedMPH,WindSpeedGustMPH,Humidity,HourlyPrecipIn,Conditions,Clouds,dailyrainin,SoftwareType,DateUTC
2013-02-18 00:03:00,25.7,18.9,29.56,ESE,109,4.0,5.4,75,0.00,,,-99.99,FreeWX 2.04,2013-02-18 06:03:00,
2013-02-18 00:08:00,25.9,19.0,29.56,ESE,109,4.0,4.9,75,0.00,,,-99.99,FreeWX 2.04,2013-02-18 06:08:00,
2013-02-18 00:13:00,25.9,19.0,29.56,ESE,109,3.0,4.5,75,0.00,,,-99.99,FreeWX 2.04,2013-02-18 06:13:00,
2013-02-18 00:18:00,25.9,19.0,29.59,ESE,110,4.0,6.3,75,0.00,,,-99.99,FreeWX 2.04,2013-02-18 06:18:00,
2013-02-18 00:23:00,26.1,19.2,29.59,ESE,110,4.0,4.5,75,0.00,,,-99.99,FreeWX 2.04,2013-02-18 06:23:00,
2013-02-18 00:28:00,26.1,19.6,29.59,ESE,111,3.0,4.9,76,0.00,,,-99.99,FreeWX 2.04,2013-02-18 06:28:00,
2013-02-18 00:33:00,26.1,19.6,29.56,ESE,111,4.0,4.9,76,0.00,,,-99.99,FreeWX 2.04,2013-02-18 06:33:00,
2013-02-18 00:38:00,26.1,19.6,29.56,ESE,111,3.0,5.8,76,0.00,,,-99.99,FreeWX 2.04,2013-02-18 06:38:00,
2013-02-18 00:43:00,26.1,19.6,29.56,ESE,111,3.0,5.8,76,0.00,,,-99.99,FreeWX 2.04,2013-02-18 06:43:00,
2013-02-18 00:48:00,26.1,19.6,29.56,ESE,111,2.0,4.0,76,0.00,,,-99.99,FreeWX 2.04,2013-02-18 06:48:00,
2013-02-18 00:53:00,26.1,19.6,29.56,ESE,111,1.0,4.0,76,0.00,,,-99.99,FreeWX 2.04,2013-02-18 06:53:00,
2013-02-18 00:58:00,26.1,19.6,29.56,North,-999,0.0,3.6,76,0.00,,,-99.99,FreeWX 2.04,2013-02-18 06:58:00,
2013-02-18 01:03:00,26.1,19.6,29.56,North,-999,0.0,3.6,76,0.00,,,-99.99,FreeWX 2.04,2013-02-18 07:03:00,
2013-02-18 01:08:00,26.1,19.6,29.56,North,-999,0.0,4.9,76,0.00,,,-99.99,FreeWX 2.04,2013-02-18 07:08:00,
2013-02-18 01:13:00,25.9,19.4,29.56,North,-999,0.0,0.0,76,0.00,,,-99.99,FreeWX 2.04,2013-02-18 07:13:00,
2013-02-18 01:18:00,25.9,19.4,29.56,North,-999,0.0,4.0,76,0.00,,,-99.99,FreeWX 2.04,2013-02-18 07:18:00,
2013-02-18 01:23:00,25.9,19.4,29.56,North,-999,0.0,2.7,76,0.00,,,-99.99,FreeWX 2.04,2013-02-18 07:23:00,
2013-02-18 01:28:00,25.7,19.2,29.56,North,-999,0.0,4.9,76,0.00,,,-99.99,FreeWX 2.04,2013-02-18 07:28:00,
2013-02-18 01:33:00,25.7,19.2,29.56,North,-999,0.0,5.8,76,0.00,,,-99.99,FreeWX 2.04,2013-02-18 07:33:00,
2013-02-18 01:39:00,25.7,19.2,29.56,North,-999,0.0,3.1,76,0.00,,,-99.99,FreeWX 2.04,2013-02-18 07:39:00,
2013-02-18 01:44:00,25.7,19.2,29.56,ENE,60,1.0,5.8,76,0.00,,,-99.99,FreeWX 2.04,2013-02-18 07:44:00,
2013-02-18 01:49:00,25.5,19.0,29.56,NE,52,2.0,4.9,76,0.00,,,-99.99,FreeWX 2.04,2013-02-18 07:49:00,
2013-02-18 01:54:00,25.5,19.0,29.56,NE,48,1.0,5.4,76,0.00,,,-99.99,FreeWX 2.04,2013-02-18 07:54:00,
2013-02-18 01:59:00,25.5,19.0,29.56,NE,49,2.0,4.9,76,0.00,,,-99.99,FreeWX 2.04,2013-02-18 07:59:00,
2013-02-18 02:04:00,25.5,19.0,29.56,NE,49,1.0,3.6,76,0.00,,,-99.99,FreeWX 2.04,2013-02-18 08:04:00,
2013-02-18 02:09:00,25.5,19.0,29.56,North,-999,0.0,4.0,76,0.00,,,-99.99,FreeWX 2.04,2013-02-18 08:09:00,
2013-02-18 02:14:00,25.5,19.0,29.56,NE,49,1.0,4.0,76,0.00,,,-99.99,FreeWX 2.04,2013-02-18 08:14:00,
2013-02-18 02:19:00,25.5,19.0,29.56,NE,49,2.0,4.0,76,0.00,,,-99.99,FreeWX 2.04,2013-02-18 08:19:00,
2013-02-18 02:24:00,25.5,19.0,29.56,NE,49,1.0,3.1,76,0.00,,,-99.99,FreeWX 2.04,2013-02-18 08:24:00,
2013-02-18 02:29:00,25.5,19.0,29.56,NE,49,1.0,4.0,76,0.00,,,-99.99,FreeWX 2.04,2013-02-18 08:29:00,
2013-02-18 02:34:00,25.5,19.0,29.53,NE,49,1.0,4.5,76,0.00,,,-99.99,FreeWX 2.04,2013-02-18 08:34:00,
2013-02-18 02:39:00,25.5,19.0,29.53,NE,48,2.0,5.4,76,0.00,,,-99.99,FreeWX 2.04,2013-02-18 08:39:00,
2013-02-18 02:44:00,25.5,19.0,29.53,NE,48,2.0,4.0,76,0.00,,,-99.99,FreeWX 2.04,2013-02-18 08:44:00,
2013-02-18 02:49:00,25.5,19.0,29.53,NE,48,1.0,4.9,76,0.00,,,-99.99,FreeWX 2.04,2013-02-18 08:49:00,
2013-02-18 02:54:00,25.5,19.0,29.53,NE,47,1.0,4.5,76,0.00,,,-99.99,FreeWX 2.04,2013-02-18 08:54:00,
2013-02-18 02:59:00,25.5,19.0,29.53,North,-999,0.0,0.0,76,0.00,,,-99.99,FreeWX 2.04,2013-02-18 08:59:00,
2013-02-18 03:04:00,25.5,19.0,29.53,North,-999,0.0,3.6,76,0.00,,,-99.99,FreeWX 2.04,2013-02-18 09:04:00,
2013-02-18 03:09:00,25.5,19.0,29.53,North,-999,0.0,4.5,76,0.00,,,-99.99,FreeWX 2.04,2013-02-18 09:09:00,
2013-02-18 03:14:00,25.5,19.0,29.53,North,-999,0.0,2.7,76,0.00,,,-99.99,FreeWX 2.04,2013-02-18 09:14:00,
2013-02-18 03:19:00,25.5,19.0,29.53,North,-999,0.0,4.9,76,0.00,,,-99.99,FreeWX 2.04,2013-02-18 09:19:00,
2013-02-18 03:24:00,25.5,19.0,29.53,North,-999,0.0,3.1,76,0.00,,,-99.99,FreeWX 2.04,2013-02-18 09:24:00,
2013-02-18 03:29:00,25.5,19.0,29.53,North,-999,0.0,4.0,76,0.00,,,-99.99,FreeWX 2.04,2013-02-18 09:29:00,
2013-02-18 03:34:00,25.5,19.0,29.53,North,-999,0.0,4.0,76,0.00,,,-99.99,FreeWX 2.04,2013-02-18 09:34:00,
2013-02-18 03:39:00,25.5,19.0,29.53,North,-999,0.0,2.7,76,0.00,,,-99.99,FreeWX 2.04,2013-02-18 09:39:00,
2013-02-18 03:44:00,25.5,19.0,29.53,NE,48,1.0,6.3,76,0.00,,,-99.99,FreeWX 2.04,2013-02-18 09:44:00,
2013-02-18 03:49:00,25.5,19.0,29.53,NE,48,1.0,3.6,76,0.00,,,-99.99,FreeWX 2.04,2013-02-18 09:49:00,
2013-02-18 03:54:00,25.3,18.9,29.53,North,-999,0.0,4.9,76,0.00,,,-99.99,FreeWX 2.04,2013-02-18 09:54:00,
2013-02-18 03:59:00,25.3,18.9,29.53,North,-999,0.0,3.6,76,0.00,,,-99.99,FreeWX 2.04,2013-02-18 09:59:00,
2013-02-18 04:04:00,25.3,18.9,29.53,North,-999,0.0,3.1,76,0.00,,,-99.99,FreeWX 2.04,2013-02-18 10:04:00,
2013-02-18 04:09:00,25.3,18.9,29.53,North,-999,0.0,2.7,76,0.00,,,-99.99,FreeWX 2.04,2013-02-18 10:09:00,
2013-02-18 04:14:00,25.2,18.7,29.53,North,-999,0.0,4.9,76,0.00,,,-99.99,FreeWX 2.04,2013-02-18 10:14:00,
2013-02-18 04:19:00,25.2,18.7,29.53,NE,48,1.0,5.8,76,0.00,,,-99.99,FreeWX 2.04,2013-02-18 10:19:00,
2013-02-18 04:24:00,25.2,18.7,29.53,North,-999,0.0,0.0,76,0.00,,,-99.99,FreeWX 2.04,2013-02-18 10:24:00,
2013-02-18 04:29:00,25.2,18.7,29.53,North,-999,0.0,4.5,76,0.00,,,-99.99,FreeWX 2.04,2013-02-18 10:29:00,
2013-02-18 04:34:00,25.2,18.7,29.53,North,-999,0.0,5.8,76,0.00,,,-99.99,FreeWX 2.04,2013-02-18 10:34:00,
2013-02-18 04:39:00,25.2,19.0,29.53,NE,46,1.0,4.5,77,0.00,,,-99.99,FreeWX 2.04,2013-02-18 10:39:00,
2013-02-18 04:44:00,25.2,19.0,29.53,North,-999,0.0,5.4,77,0.00,,,-99.99,FreeWX 2.04,2013-02-18 10:44:00,
2013-02-18 04:49:00,25.0,18.9,29.53,North,-999,0.0,3.1,77,0.00,,,-99.99,FreeWX 2.04,2013-02-18 10:49:00,
2013-02-18 04:54:00,25.0,18.9,29.53,North,-999,0.0,0.0,77,0.00,,,-99.99,FreeWX 2.04,2013-02-18 10:54:00,
2013-02-18 04:59:00,25.0,18.9,29.53,North,-999,0.0,3.1,77,0.00,,,-99.99,FreeWX 2.04,2013-02-18 10:59:00,
2013-02-18 05:04:00,25.0,18.9,29.53,North,-999,0.0,4.9,77,0.00,,,-99.99,FreeWX 2.04,2013-02-18 11:04:00,
2013-02-18 05:09:00,25.0,18.9,29.53,ENE,62,1.0,4.9,77,0.00,,,-99.99,FreeWX 2.04,2013-02-18 11:09:00,
2013-02-18 05:14:00,25.0,18.9,29.53,North,-999,0.0,3.1,77,0.00,,,-99.99,FreeWX 2.04,2013-02-18 11:14:00,
2013-02-18 05:19:00,25.0,18.9,29.53,North,-999,0.0,0.0,77,0.00,,,-99.99,FreeWX 2.04,2013-02-18 11:19:00,
2013-02-18 05:24:00,24.8,18.7,29.53,North,-999,0.0,3.6,77,0.00,,,-99.99,FreeWX 2.04,2013-02-18 11:24:00,
2013-02-18 05:29:00,24.8,18.7,29.53,North,-999,0.0,0.0,77,0.00,,,-99.99,FreeWX 2.04,2013-02-18 11:29:00,
2013-02-18 05:34:00,24.8,18.9,29.53,North,-999,0.0,3.1,78,0.00,,,-99.99,FreeWX 2.04,2013-02-18 11:34:00,
2013-02-18 05:39:00,24.8,18.9,29.53,North,-999,0.0,3.1,78,0.00,,,-99.99,FreeWX 2.04,2013-02-18 11:39:00,
2013-02-18 05:44:00,24.8,18.9,29.53,North,-999,0.0,3.6,78,0.00,,,-99.99,FreeWX 2.04,2013-02-18 11:44:00,
2013-02-18 05:49:00,24.6,18.7,29.53,North,-999,0.0,3.6,78,0.00,,,-99.99,FreeWX 2.04,2013-02-18 11:49:00,
2013-02-18 05:54:00,24.6,18.7,29.53,North,-999,0.0,0.0,78,0.00,,,-99.99,FreeWX 2.04,2013-02-18 11:54:00,
2013-02-18 05:59:00,24.6,18.7,29.53,North,-999,0.0,0.0,78,0.00,,,-99.99,FreeWX 2.04,2013-02-18 11:59:00,
2013-02-18 06:04:00,24.6,18.7,29.53,North,-999,0.0,3.1,78,0.00,,,-99.99,FreeWX 2.04,2013-02-18 12:04:00,
2013-02-18 06:09:00,24.6,18.7,29.53,North,-999,0.0,0.0,78,0.00,,,-99.99,FreeWX 2.04,2013-02-18 12:09:00,
2013-02-18 06:14:00,24.6,19.0,29.53,North,-999,0.0,0.0,79,0.00,,,-99.99,FreeWX 2.04,2013-02-18 12:14:00,
2013-02-18 06:19:00,24.6,19.0,29.53,North,-999,0.0,0.0,79,0.00,,,-99.99,FreeWX 2.04,2013-02-18 12:19:00,
2013-02-18 06:24:00,24.6,19.0,29.53,North,-999,0.0,0.0,79,0.00,,,-99.99,FreeWX 2.04,2013-02-18 12:24:00,
2013-02-18 06:29:00,24.6,19.0,29.53,North,-999,0.0,0.0,79,0.00,,,-99.99,FreeWX 2.04,2013-02-18 12:29:00,
2013-02-18 06:34:00,24.6,19.0,29.53,North,-999,0.0,0.0,79,0.00,,,-99.99,FreeWX 2.04,2013-02-18 12:34:00,
2013-02-18 06:39:00,24.6,19.0,29.53,North,-999,0.0,0.0,79,0.00,,,-99.99,FreeWX 2.04,2013-02-18 12:39:00,
2013-02-18 06:44:00,24.6,19.0,29.53,North,-999,0.0,0.0,79,0.00,,,-99.99,FreeWX 2.04,2013-02-18 12:44:00,
2013-02-18 06:49:00,24.6,19.0,29.50,North,-999,0.0,0.0,79,0.00,,,-99.99,FreeWX 2.04,2013-02-18 12:49:00,
2013-02-18 06:59:00,24.6,19.0,29.50,North,-999,0.0,0.0,79,0.00,,,-99.99,FreeWX 2.04,2013-02-18 12:59:00,
2013-02-18 07:04:00,24.4,18.9,29.53,North,-999,0.0,0.0,79,0.00,,,-99.99,FreeWX 2.04,2013-02-18 13:04:00,
2013-02-18 07:09:00,24.4,19.2,29.53,North,-999,0.0,0.0,80,0.00,,,-99.99,FreeWX 2.04,2013-02-18 13:09:00,
2013-02-18 07:14:00,24.4,19.2,29.53,North,-999,0.0,0.0,80,0.00,,,-99.99,FreeWX 2.04,2013-02-18 13:14:00,
2013-02-18 07:19:00,24.4,19.2,29.53,North,-999,0.0,0.0,80,0.00,,,-99.99,FreeWX 2.04,2013-02-18 13:19:00,
2013-02-18 07:24:00,24.4,19.2,29.53,North,-999,0.0,0.0,80,0.00,,,-99.99,FreeWX 2.04,2013-02-18 13:24:00,
2013-02-18 07:29:00,24.4,19.2,29.53,North,-999,0.0,0.0,80,0.00,,,-99.99,FreeWX 2.04,2013-02-18 13:29:00,
2013-02-18 07:34:00,24.4,19.2,29.53,North,-999,0.0,0.0,80,0.00,,,-99.99,FreeWX 2.04,2013-02-18 13:34:00,
2013-02-18 07:39:00,24.4,19.2,29.53,North,-999,0.0,0.0,80,0.00,,,-99.99,FreeWX 2.04,2013-02-18 13:39:00,
2013-02-18 07:44:00,24.6,19.4,29.53,North,-999,0.0,0.0,80,0.00,,,-99.99,FreeWX 2.04,2013-02-18 13:44:00,
2013-02-18 07:49:00,24.6,19.4,29.53,North,-999,0.0,0.0,80,0.00,,,-99.99,FreeWX 2.04,2013-02-18 13:49:00,
2013-02-18 07:54:00,24.6,19.4,29.53,North,-999,0.0,0.0,80,0.00,,,-99.99,FreeWX 2.04,2013-02-18 13:54:00,
2013-02-18 07:59:00,25.0,19.9,29.53,North,-999,0.0,0.0,81,0.00,,,-99.99,FreeWX 2.04,2013-02-18 13:59:00,
2013-02-18 08:04:00,25.2,20.1,29.53,North,-999,0.0,0.0,81,0.00,,,-99.99,FreeWX 2.04,2013-02-18 14:04:00,
2013-02-18 08:09:00,25.5,20.5,29.53,North,-999,0.0,0.0,81,0.00,,,-99.99,FreeWX 2.04,2013-02-18 14:09:00,
2013-02-18 08:14:00,25.7,20.7,29.53,North,-999,0.0,0.0,81,0.00,,,-99.99,FreeWX 2.04,2013-02-18 14:14:00,
2013-02-18 08:19:00,26.1,21.0,29.53,North,-999,0.0,0.0,81,0.00,,,-99.99,FreeWX 2.04,2013-02-18 14:19:00,
2013-02-18 08:24:00,26.2,21.2,29.53,North,-999,0.0,0.0,81,0.00,,,-99.99,FreeWX 2.04,2013-02-18 14:24:00,
2013-02-18 08:29:00,26.6,21.6,29.53,North,-999,0.0,0.0,81,0.00,,,-99.99,FreeWX 2.04,2013-02-18 14:29:00,
2013-02-18 08:34:00,27.0,22.3,29.53,North,-999,0.0,0.0,82,0.00,,,-99.99,FreeWX 2.04,2013-02-18 14:34:00,
2013-02-18 08:39:00,27.1,22.5,29.53,North,-999,0.0,0.0,82,0.00,,,-99.99,FreeWX 2.04,2013-02-18 14:39:00,
2013-02-18 08:44:00,27.3,22.6,29.53,North,-999,0.0,0.0,82,0.00,,,-99.99,FreeWX 2.04,2013-02-18 14:44:00,
2013-02-18 08:49:00,27.5,22.5,29.53,North,-999,0.0,0.0,81,0.00,,,-99.99,FreeWX 2.04,2013-02-18 14:49:00,
2013-02-18 08:54:00,27.5,22.5,29.53,North,-999,0.0,0.0,81,0.00,,,-99.99,FreeWX 2.04,2013-02-18 14:54:00,
2013-02-18 08:59:00,27.7,22.6,29.53,North,-999,0.0,0.0,81,0.00,,,-99.99,FreeWX 2.04,2013-02-18 14:59:00,
2013-02-18 09:04:00,27.9,22.8,29.53,North,-999,0.0,0.0,81,0.00,,,-99.99,FreeWX 2.04,2013-02-18 15:04:00,
2013-02-18 09:09:00,28.0,22.6,29.53,North,-999,0.0,2.7,80,0.00,,,-99.99,FreeWX 2.04,2013-02-18 15:09:00,
2013-02-18 09:14:00,28.0,22.6,29.53,North,-999,0.0,3.6,80,0.00,,,-99.99,FreeWX 2.04,2013-02-18 15:14:00,
2013-02-18 09:19:00,28.2,22.8,29.53,North,-999,0.0,6.3,80,0.00,,,-99.99,FreeWX 2.04,2013-02-18 15:19:00,
2013-02-18 09:24:00,28.2,22.8,29.53,SSW,193,2.0,17.2,80,0.00,,,-99.99,FreeWX 2.04,2013-02-18 15:24:00,
2013-02-18 09:29:00,27.9,21.9,29.53,SW,214,4.0,13.0,78,0.00,,,-99.99,FreeWX 2.04,2013-02-18 15:29:00,
2013-02-18 09:34:00,27.3,21.0,29.56,SW,232,5.0,13.4,77,0.00,,,-99.99,FreeWX 2.04,2013-02-18 15:34:00,
2013-02-18 09:39:00,27.1,20.3,29.56,WSW,244,6.0,16.3,75,0.00,,,-99.99,FreeWX 2.04,2013-02-18 15:39:00,
2013-02-18 09:44:00,26.8,19.6,29.56,SW,236,7.0,19.0,74,0.00,,,-99.99,FreeWX 2.04,2013-02-18 15:44:00,
2013-02-18 09:55:00,25.9,17.1,29.56,SW,234,6.0,13.4,69,0.00,,,-99.99,FreeWX 2.04,2013-02-18 15:55:00,
2013-02-18 10:00:00,25.7,16.7,29.56,SW,235,6.0,12.1,68,0.00,,,-99.99,FreeWX 2.04,2013-02-18 16:00:00,
2013-02-18 10:05:00,25.5,16.2,29.59,SW,232,6.0,12.5,67,0.00,,,-99.99,FreeWX 2.04,2013-02-18 16:05:00,
2013-02-18 10:15:00,24.8,14.0,29.59,WSW,252,7.0,15.9,63,0.00,,,-99.99,FreeWX 2.04,2013-02-18 16:15:00,
2013-02-18 10:20:00,24.4,13.6,29.59,WSW,247,7.0,13.9,63,0.00,,,-99.99,FreeWX 2.04,2013-02-18 16:20:00,
2013-02-18 10:25:00,24.1,13.3,29.59,WSW,247,7.0,17.7,63,0.00,,,-99.99,FreeWX 2.04,2013-02-18 16:25:00,
2013-02-18 10:30:00,23.9,13.1,29.59,WSW,251,7.0,13.9,63,0.00,,,-99.99,FreeWX 2.04,2013-02-18 16:30:00,
2013-02-18 10:35:00,23.7,12.9,29.59,WSW,249,6.0,13.4,63,0.00,,,-99.99,FreeWX 2.04,2013-02-18 16:35:00,
2013-02-18 10:40:00,23.5,12.7,29.59,WSW,251,5.0,13.0,63,0.00,,,-99.99,FreeWX 2.04,2013-02-18 16:40:00,
2013-02-18 10:45:00,23.5,12.7,29.59,West,269,6.0,14.8,63,0.00,,,-99.99,FreeWX 2.04,2013-02-18 16:45:00,
2013-02-18 10:50:00,23.5,12.7,29.62,WSW,257,6.0,14.3,63,0.00,,,-99.99,FreeWX 2.04,2013-02-18 16:50:00,
2013-02-18 10:55:00,23.5,12.4,29.62,WSW,247,7.0,13.9,62,0.00,,,-99.99,FreeWX 2.04,2013-02-18 16:55:00,
2013-02-18 11:00:00,23.2,12.2,29.62,WSW,245,7.0,15.4,62,0.00,,,-99.99,FreeWX 2.04,2013-02-18 17:00:00,
2013-02-18 11:05:00,23.2,12.2,29.62,WSW,239,7.0,13.4,62,0.00,,,-99.99,FreeWX 2.04,2013-02-18 17:05:00,
2013-02-18 11:10:00,23.4,12.4,29.62,WSW,238,6.0,13.4,62,0.00,,,-99.99,FreeWX 2.04,2013-02-18 17:10:00,
2013-02-18 11:15:00,23.2,11.8,29.62,SW,235,6.0,13.9,61,0.00,,,-99.99,FreeWX 2.04,2013-02-18 17:15:00,
2013-02-18 11:20:00,23.0,11.3,29.65,SW,235,6.0,16.8,60,0.00,,,-99.99,FreeWX 2.04,2013-02-18 17:20:00,
2013-02-18 11:25:00,22.5,10.4,29.65,WSW,237,6.0,16.3,59,0.00,,,-99.99,FreeWX 2.04,2013-02-18 17:25:00,
2013-02-18 11:30:00,22.1,10.0,29.65,WSW,237,6.0,15.2,59,0.00,,,-99.99,FreeWX 2.04,2013-02-18 17:30:00,
2013-02-18 11:35:00,21.9,10.2,29.65,SW,235,5.0,11.6,60,0.00,,,-99.99,FreeWX 2.04,2013-02-18 17:35:00,
2013-02-18 11:40:00,22.1,10.8,29.65,SW,218,4.0,10.5,61,0.00,,,-99.99,FreeWX 2.04,2013-02-18 17:40:00,
2013-02-18 11:45:00,22.3,10.9,29.65,SW,214,5.0,14.3,61,0.00,,,-99.99,FreeWX 2.04,2013-02-18 17:45:00,
2013-02-18 11:50:00,22.3,10.6,29.65,SW,231,5.0,10.5,60,0.00,,,-99.99,FreeWX 2.04,2013-02-18 17:50:00,
2013-02-18 11:55:00,22.5,10.4,29.65,SW,224,5.0,10.1,59,0.00,,,-99.99,FreeWX 2.04,2013-02-18 17:55:00,
2013-02-18 12:00:00,22.3,9.9,29.65,SW,227,5.0,13.0,58,0.00,,,-99.99,FreeWX 2.04,2013-02-18 18:00:00,
2013-02-18 12:05:00,21.6,8.8,29.65,WSW,244,6.0,14.8,57,0.00,,,-99.99,FreeWX 2.04,2013-02-18 18:05:00,
2013-02-18 12:10:00,21.0,7.9,29.65,WSW,247,6.0,14.3,56,0.00,,,-99.99,FreeWX 2.04,2013-02-18 18:10:00,
2013-02-18 12:15:00,20.7,7.5,29.65,WSW,246,6.0,12.5,56,0.00,,,-99.99,FreeWX 2.04,2013-02-18 18:15:00,
2013-02-18 12:20:00,21.0,8.2,29.68,WSW,245,6.0,17.2,57,0.00,,,-99.99,FreeWX 2.04,2013-02-18 18:20:00,
2013-02-18 12:25:00,20.8,7.7,29.68,WSW,252,7.0,14.8,56,0.00,,,-99.99,FreeWX 2.04,2013-02-18 18:25:00,
2013-02-18 12:30:00,20.5,7.0,29.68,WSW,255,7.0,13.0,55,0.00,,,-99.99,FreeWX 2.04,2013-02-18 18:30:00,
2013-02-18 12:35:00,20.5,7.0,29.68,WSW,258,6.0,13.0,55,0.00,,,-99.99,FreeWX 2.04,2013-02-18 18:35:00,
2013-02-18 12:40:00,20.3,6.3,29.68,West,268,6.0,12.5,54,0.00,,,-99.99,FreeWX 2.04,2013-02-18 18:40:00,
2013-02-18 12:45:00,20.5,6.4,29.68,WSW,248,6.0,11.2,54,0.00,,,-99.99,FreeWX 2.04,2013-02-18 18:45:00,
2013-02-18 12:50:00,20.7,6.6,29.68,WSW,238,6.0,17.2,54,0.00,,,-99.99,FreeWX 2.04,2013-02-18 18:50:00,
2013-02-18 12:55:00,20.8,6.8,29.68,WSW,238,6.0,13.0,54,0.00,,,-99.99,FreeWX 2.04,2013-02-18 18:55:00,
2013-02-18 13:00:00,20.5,6.4,29.68,WSW,238,5.0,9.2,54,0.00,,,-99.99,FreeWX 2.04,2013-02-18 19:00:00,
2013-02-18 13:05:00,20.1,6.3,29.68,WSW,245,4.0,13.4,54,0.00,,,-99.99,FreeWX 2.04,2013-02-18 19:05:00,
2013-02-18 13:10:00,19.4,5.5,29.68,SW,236,5.0,15.9,54,0.00,,,-99.99,FreeWX 2.04,2013-02-18 19:10:00,
2013-02-18 13:15:00,18.7,4.5,29.68,SW,214,6.0,14.8,53,0.00,,,-99.99,FreeWX 2.04,2013-02-18 19:15:00,
2013-02-18 13:20:00,18.1,3.9,29.71,SW,222,6.0,11.6,53,0.00,,,-99.99,FreeWX 2.04,2013-02-18 19:20:00,
2013-02-18 13:25:00,17.6,3.4,29.71,WSW,247,7.0,16.3,53,0.00,,,-99.99,FreeWX 2.04,2013-02-18 19:25:00,
2013-02-18 13:30:00,17.2,3.0,29.71,WSW,251,7.0,15.9,53,0.00,,,-99.99,FreeWX 2.04,2013-02-18 19:30:00,
2013-02-18 13:35:00,17.2,3.0,29.71,WSW,256,6.0,11.0,53,0.00,,,-99.99,FreeWX 2.04,2013-02-18 19:35:00,
2013-02-18 13:40:00,17.4,3.7,29.71,WSW,254,5.0,10.1,54,0.00,,,-99.99,FreeWX 2.04,2013-02-18 19:40:00,
2013-02-18 13:45:00,17.6,3.7,29.71,WSW,253,5.0,11.6,54,0.00,,,-99.99,FreeWX 2.04,2013-02-18 19:45:00,
2013-02-18 13:50:00,17.6,3.7,29.71,SW,229,5.0,13.0,54,0.00,,,-99.99,FreeWX 2.04,2013-02-18 19:50:00,
2013-02-18 13:55:00,17.6,3.7,29.71,SW,221,5.0,13.0,54,0.00,,,-99.99,FreeWX 2.04,2013-02-18 19:55:00,
2013-02-18 14:00:00,17.2,3.6,29.71,SW,223,5.0,13.9,54,0.00,,,-99.99,FreeWX 2.04,2013-02-18 20:00:00,
2013-02-18 14:05:00,16.9,3.2,29.71,SW,236,5.0,11.6,54,0.00,,,-99.99,FreeWX 2.04,2013-02-18 20:05:00,
2013-02-18 14:10:00,16.5,2.8,29.71,WSW,253,6.0,12.1,54,0.00,,,-99.99,FreeWX 2.04,2013-02-18 20:10:00,
2013-02-18 14:15:00,16.7,3.4,29.71,WSW,242,6.0,14.8,55,0.00,,,-99.99,FreeWX 2.04,2013-02-18 20:15:00,
2013-02-18 14:20:00,16.7,3.0,29.74,WSW,237,6.0,14.8,54,0.00,,,-99.99,FreeWX 2.04,2013-02-18 20:20:00,
2013-02-18 14:25:00,16.7,3.0,29.74,SW,218,6.0,13.0,54,0.00,,,-99.99,FreeWX 2.04,2013-02-18 20:25:00,
2013-02-18 14:30:00,16.7,3.0,29.74,SW,214,6.0,17.2,54,0.00,,,-99.99,FreeWX 2.04,2013-02-18 20:30:00,
2013-02-18 14:35:00,16.9,3.2,29.74,WSW,238,6.0,12.1,54,0.00,,,-99.99,FreeWX 2.04,2013-02-18 20:35:00,
2013-02-18 14:41:00,16.9,3.2,29.74,WSW,246,6.0,13.0,54,0.00,,,-99.99,FreeWX 2.04,2013-02-18 20:41:00,
2013-02-18 14:46:00,16.5,2.5,29.74,West,267,6.0,13.9,53,0.00,,,-99.99,FreeWX 2.04,2013-02-18 20:46:00,
2013-02-18 14:51:00,16.3,2.3,29.74,WSW,258,6.0,12.5,53,0.00,,,-99.99,FreeWX 2.04,2013-02-18 20:51:00,
2013-02-18 14:56:00,15.8,1.8,29.74,WSW,242,7.0,17.2,53,0.00,,,-99.99,FreeWX 2.04,2013-02-18 20:56:00,
2013-02-18 15:06:00,15.6,1.9,29.74,SW,230,6.0,14.3,54,0.00,,,-99.99,FreeWX 2.04,2013-02-18 21:06:00,
2013-02-18 15:11:00,15.3,1.6,29.74,WSW,240,8.0,16.8,54,0.00,,,-99.99,FreeWX 2.04,2013-02-18 21:11:00,
2013-02-18 15:16:00,15.1,1.4,29.74,WSW,243,7.0,11.6,54,0.00,,,-99.99,FreeWX 2.04,2013-02-18 21:16:00,
2013-02-18 15:21:00,14.9,1.2,29.76,WSW,247,6.0,16.3,54,0.00,,,-99.99,FreeWX 2.04,2013-02-18 21:21:00,
2013-02-18 15:26:00,14.7,1.0,29.76,WSW,242,7.0,13.9,54,0.00,,,-99.99,FreeWX 2.04,2013-02-18 21:26:00,
2013-02-18 15:31:00,14.7,1.0,29.76,WSW,256,6.0,11.0,54,0.00,,,-99.99,FreeWX 2.04,2013-02-18 21:31:00,
2013-02-18 15:36:00,14.4,1.2,29.76,West,270,5.0,12.1,55,0.00,,,-99.99,FreeWX 2.04,2013-02-18 21:36:00,
2013-02-18 15:41:00,14.2,1.0,29.76,West,263,5.0,10.5,55,0.00,,,-99.99,FreeWX 2.04,2013-02-18 21:41:00,
2013-02-18 15:46:00,14.2,1.0,29.76,SW,235,5.0,10.1,55,0.00,,,-99.99,FreeWX 2.04,2013-02-18 21:46:00,
2013-02-18 15:51:00,14.2,1.4,29.76,SW,231,5.0,10.1,56,0.00,,,-99.99,FreeWX 2.04,2013-02-18 21:51:00,
2013-02-18 15:56:00,14.0,0.9,29.76,WSW,247,5.0,13.0,55,0.00,,,-99.99,FreeWX 2.04,2013-02-18 21:56:00,
2013-02-18 16:01:00,13.3,-99.9,29.76,WSW,238,6.0,15.9,-999,0.00,,,-99.99,FreeWX 2.04,2013-02-18 22:01:00,
2013-02-18 16:06:00,12.9,-99.9,29.76,WSW,237,6.0,13.0,-999,0.00,,,-99.99,FreeWX 2.04,2013-02-18 22:06:00,
2013-02-18 16:11:00,12.6,-99.9,29.76,WSW,252,5.0,14.3,-999,0.00,,,-99.99,FreeWX 2.04,2013-02-18 22:11:00,
2013-02-18 16:16:00,12.6,-99.9,29.76,WSW,246,5.0,14.3,-999,0.00,,,-99.99,FreeWX 2.04,2013-02-18 22:16:00,
2013-02-18 16:21:00,12.4,-99.9,29.79,WSW,244,7.0,15.2,-999,0.00,,,-99.99,FreeWX 2.04,2013-02-18 22:21:00,
2013-02-18 16:26:00,12.0,-99.9,29.79,WSW,253,6.0,11.6,-999,0.00,,,-99.99,FreeWX 2.04,2013-02-18 22:26:00,
2013-02-18 16:31:00,11.7,-99.9,29.79,WSW,246,6.0,14.8,-999,0.00,,,-99.99,FreeWX 2.04,2013-02-18 22:31:00,
2013-02-18 16:36:00,11.7,-99.9,29.79,WSW,248,6.0,15.4,-999,0.00,,,-99.99,FreeWX 2.04,2013-02-18 22:36:00,
2013-02-18 16:41:00,11.5,-99.9,29.79,WSW,247,6.0,12.1,-999,0.00,,,-99.99,FreeWX 2.04,2013-02-18 22:41:00,
2013-02-18 16:46:00,11.5,-99.9,29.79,SW,235,5.0,12.5,-999,0.00,,,-99.99,FreeWX 2.04,2013-02-18 22:46:00,
2013-02-18 16:51:00,11.1,-99.9,29.79,WSW,244,4.0,11.0,-999,0.00,,,-99.99,FreeWX 2.04,2013-02-18 22:51:00,
2013-02-18 16:56:00,10.9,-99.9,29.79,WSW,250,5.0,12.1,-999,0.00,,,-99.99,FreeWX 2.04,2013-02-18 22:56:00,
2013-02-18 17:01:00,10.8,-99.9,29.79,WSW,245,5.0,12.5,-999,0.00,,,-99.99,FreeWX 2.04,2013-02-18 23:01:00,
2013-02-18 17:06:00,10.6,-99.9,29.79,WSW,240,5.0,10.5,-999,0.00,,,-99.99,FreeWX 2.04,2013-02-18 23:06:00,
2013-02-18 17:11:00,10.4,-99.9,29.79,WSW,245,4.0,7.8,-999,0.00,,,-99.99,FreeWX 2.04,2013-02-18 23:11:00,
2013-02-18 17:16:00,10.2,-99.9,29.79,WSW,258,4.0,10.1,-999,0.00,,,-99.99,FreeWX 2.04,2013-02-18 23:16:00,
2013-02-18 17:26:00,9.9,-99.9,29.82,WSW,246,6.0,11.0,-999,0.00,,,-99.99,FreeWX 2.04,2013-02-18 23:26:00,
2013-02-18 17:31:00,9.5,-99.9,29.82,WSW,248,6.0,18.1,-999,0.00,,,-99.99,FreeWX 2.04,2013-02-18 23:31:00,
2013-02-18 17:36:00,9.3,-99.9,29.82,WSW,255,5.0,11.2,-999,0.00,,,-99.99,FreeWX 2.04,2013-02-18 23:36:00,
2013-02-18 17:41:00,9.1,-99.9,29.82,WSW,257,4.0,11.0,-999,0.00,,,-99.99,FreeWX 2.04,2013-02-18 23:41:00,
2013-02-18 17:46:00,9.1,-99.9,29.82,WSW,258,5.0,10.5,-999,0.00,,,-99.99,FreeWX 2.04,2013-02-18 23:46:00,
2013-02-18 17:51:00,8.8,-99.9,29.82,WSW,244,5.0,11.6,-999,0.00,,,-99.99,FreeWX 2.04,2013-02-18 23:51:00,
2013-02-18 17:56:00,8.6,-99.9,29.82,SW,235,5.0,13.4,-999,0.00,,,-99.99,FreeWX 2.04,2013-02-18 23:56:00,
2013-02-18 18:02:00,8.4,-99.9,29.85,West,260,5.0,11.0,-999,0.00,,,-99.99,FreeWX 2.04,2013-02-19 00:02:00,
2013-02-18 18:07:00,8.2,-99.9,29.85,West,263,5.0,14.8,-999,0.00,,,-99.99,FreeWX 2.04,2013-02-19 00:07:00,
2013-02-18 18:12:00,8.1,-99.9,29.85,WSW,247,6.0,13.0,-999,0.00,,,-99.99,FreeWX 2.04,2013-02-19 00:12:00,
2013-02-18 18:17:00,7.9,-99.9,29.85,WSW,250,6.0,11.6,-999,0.00,,,-99.99,FreeWX 2.04,2013-02-19 00:17:00,
2013-02-18 18:22:00,7.9,-99.9,29.85,WSW,249,5.0,12.5,-999,0.00,,,-99.99,FreeWX 2.04,2013-02-19 00:22:00,
2013-02-18 18:27:00,7.9,-99.9,29.85,WSW,247,6.0,12.5,-999,0.00,,,-99.99,FreeWX 2.04,2013-02-19 00:27:00,
2013-02-18 18:32:00,7.7,-99.9,29.85,West,261,7.0,16.3,-999,0.00,,,-99.99,FreeWX 2.04,2013-02-19 00:32:00,
2013-02-18 18:37:00,7.5,-99.9,29.85,West,266,6.0,13.4,-999,0.00,,,-99.99,FreeWX 2.04,2013-02-19 00:37:00,
2013-02-18 18:42:00,7.5,-99.9,29.85,West,261,6.0,21.5,-999,0.00,,,-99.99,FreeWX 2.04,2013-02-19 00:42:00,
2013-02-18 18:47:00,7.3,-99.9,29.85,WNW,284,6.0,14.8,-999,0.00,,,-99.99,FreeWX 2.04,2013-02-19 00:47:00,
2013-02-18 18:52:00,7.2,-99.9,29.85,WNW,289,6.0,9.6,-999,0.00,,,-99.99,FreeWX 2.04,2013-02-19 00:52:00,
2013-02-18 18:57:00,7.2,-99.9,29.85,West,270,5.0,11.2,-999,0.00,,,-99.99,FreeWX 2.04,2013-02-19 00:57:00,
2013-02-18 19:02:00,7.0,-99.9,29.88,West,263,5.0,12.1,-999,0.00,,,-99.99,FreeWX 2.04,2013-02-19 01:02:00,
2013-02-18 19:07:00,7.0,-99.9,29.88,WSW,256,6.0,12.1,-999,0.00,,,-99.99,FreeWX 2.04,2013-02-19 01:07:00,
2013-02-18 19:17:00,6.8,-99.9,29.88,West,280,6.0,15.9,-999,0.00,,,-99.99,FreeWX 2.04,2013-02-19 01:17:00,
2013-02-18 19:22:00,6.6,-99.9,29.88,West,270,6.0,11.2,-999,0.00,,,-99.99,FreeWX 2.04,2013-02-19 01:22:00,
2013-02-18 19:32:00,6.1,-99.9,29.88,West,262,7.0,14.3,-999,0.00,,,-99.99,FreeWX 2.04,2013-02-19 01:32:00,
2013-02-18 19:37:00,6.1,-99.9,29.88,West,275,6.0,11.0,-999,0.00,,,-99.99,FreeWX 2.04,2013-02-19 01:37:00,
2013-02-18 19:42:00,6.1,-99.9,29.88,West,271,6.0,10.5,-999,0.00,,,-99.99,FreeWX 2.04,2013-02-19 01:42:00,
2013-02-18 19:47:00,6.1,-99.9,29.88,WSW,255,6.0,15.2,-999,0.00,,,-99.99,FreeWX 2.04,2013-02-19 01:47:00,
2013-02-18 19:52:00,5.9,-99.9,29.88,WSW,257,6.0,10.5,-999,0.00,,,-99.99,FreeWX 2.04,2013-02-19 01:52:00,
2013-02-18 19:57:00,5.5,-99.9,29.88,West,279,7.0,16.8,-999,0.00,,,-99.99,FreeWX 2.04,2013-02-19 01:57:00,
2013-02-18 20:02:00,5.4,-99.9,29.88,WNW,286,7.0,15.9,-999,0.00,,,-99.99,FreeWX 2.04,2013-02-19 02:02:00,
2013-02-18 20:08:00,5.4,-99.9,29.88,West,276,6.0,14.3,-999,0.00,,,-99.99,FreeWX 2.04,2013-02-19 02:08:00,
2013-02-18 20:13:00,5.4,-99.9,29.88,West,268,6.0,15.2,-999,0.00,,,-99.99,FreeWX 2.04,2013-02-19 02:13:00,
2013-02-18 20:18:00,5.2,-99.9,29.88,West,272,6.0,14.3,-999,0.00,,,-99.99,FreeWX 2.04,2013-02-19 02:18:00,
2013-02-18 20:23:00,5.2,-99.9,29.88,West,267,7.0,12.5,-999,0.00,,,-99.99,FreeWX 2.04,2013-02-19 02:23:00,
2013-02-18 20:28:00,5.0,-99.9,29.88,West,264,7.0,13.9,-999,0.00,,,-99.99,FreeWX 2.04,2013-02-19 02:28:00,
2013-02-18 20:33:00,5.0,-99.9,29.88,West,260,6.0,11.6,-999,0.00,,,-99.99,FreeWX 2.04,2013-02-19 02:33:00,
2013-02-18 20:38:00,4.8,-99.9,29.88,WSW,257,6.0,11.2,-999,0.00,,,-99.99,FreeWX 2.04,2013-02-19 02:38:00,
2013-02-18 20:43:00,4.8,-99.9,29.88,West,262,6.0,13.0,-999,0.00,,,-99.99,FreeWX 2.04,2013-02-19 02:43:00,
2013-02-18 20:48:00,4.6,-99.9,29.88,West,260,6.0,11.6,-999,0.00,,,-99.99,FreeWX 2.04,2013-02-19 02:48:00,
2013-02-18 20:53:00,4.5,-99.9,29.88,West,259,6.0,13.9,-999,0.00,,,-99.99,FreeWX 2.04,2013-02-19 02:53:00,
2013-02-18 20:58:00,4.5,-99.9,29.88,West,260,6.0,11.2,-999,0.00,,,-99.99,FreeWX 2.04,2013-02-19 02:58:00,
2013-02-18 21:03:00,4.5,-99.9,29.91,WSW,252,5.0,13.0,-999,0.00,,,-99.99,FreeWX 2.04,2013-02-19 03:03:00,
2013-02-18 21:08:00,4.3,-99.9,29.91,West,262,5.0,11.2,-999,0.00,,,-99.99,FreeWX 2.04,2013-02-19 03:08:00,
2013-02-18 21:13:00,4.1,-99.9,29.91,WNW,288,6.0,11.2,-999,0.00,,,-99.99,FreeWX 2.04,2013-02-19 03:13:00,
2013-02-18 21:18:00,4.1,-99.9,29.91,West,277,6.0,13.9,-999,0.00,,,-99.99,FreeWX 2.04,2013-02-19 03:18:00,
2013-02-18 21:23:00,4.1,-99.9,29.91,WSW,250,6.0,12.1,-999,0.00,,,-99.99,FreeWX 2.04,2013-02-19 03:23:00,
2013-02-18 21:28:00,3.9,-99.9,29.91,WSW,253,7.0,13.9,-999,0.00,,,-99.99,FreeWX 2.04,2013-02-19 03:28:00,
2013-02-18 21:33:00,3.7,-99.9,29.91,West,261,6.0,11.6,-999,0.00,,,-99.99,FreeWX 2.04,2013-02-19 03:33:00,
2013-02-18 21:38:00,3.7,-99.9,29.91,WSW,257,6.0,12.5,-999,0.00,,,-99.99,FreeWX 2.04,2013-02-19 03:38:00,
2013-02-18 21:43:00,3.6,-99.9,29.91,WSW,249,6.0,13.0,-999,0.00,,,-99.99,FreeWX 2.04,2013-02-19 03:43:00,
2013-02-18 21:48:00,3.6,-99.9,29.91,West,259,5.0,13.0,-999,0.00,,,-99.99,FreeWX 2.04,2013-02-19 03:48:00,
2013-02-18 21:53:00,3.6,-99.9,29.91,West,271,6.0,13.4,-999,0.00,,,-99.99,FreeWX 2.04,2013-02-19 03:53:00,
2013-02-18 21:58:00,3.6,-99.9,29.91,West,274,6.0,12.1,-999,0.00,,,-99.99,FreeWX 2.04,2013-02-19 03:58:00,
2013-02-18 22:03:00,3.6,-99.9,29.94,West,269,5.0,11.2,-999,0.00,,,-99.99,FreeWX 2.04,2013-02-19 04:03:00,
2013-02-18 22:08:00,3.6,-99.9,29.94,West,263,6.0,12.1,-999,0.00,,,-99.99,FreeWX 2.04,2013-02-19 04:08:00,
2013-02-18 22:13:00,3.6,-99.9,29.94,WSW,256,6.0,12.5,-999,0.00,,,-99.99,FreeWX 2.04,2013-02-19 04:13:00,
2013-02-18 22:18:00,3.4,-99.9,29.94,WSW,250,6.0,11.0,-999,0.00,,,-99.99,FreeWX 2.04,2013-02-19 04:18:00,
2013-02-18 22:23:00,3.4,-99.9,29.94,West,268,6.0,13.4,-999,0.00,,,-99.99,FreeWX 2.04,2013-02-19 04:23:00,
2013-02-18 22:28:00,3.2,-99.9,29.94,West,278,6.0,12.1,-999,0.00,,,-99.99,FreeWX 2.04,2013-02-19 04:28:00,
2013-02-18 22:33:00,3.2,-99.9,29.94,West,267,6.0,15.2,-999,0.00,,,-99.99,FreeWX 2.04,2013-02-19 04:33:00,
2013-02-18 22:38:00,3.0,-99.9,29.94,West,261,7.0,17.2,-999,0.00,,,-99.99,FreeWX 2.04,2013-02-19 04:38:00,
2013-02-18 22:43:00,2.8,-99.9,29.94,WSW,258,7.0,13.4,-999,0.00,,,-99.99,FreeWX 2.04,2013-02-19 04:43:00,
2013-02-18 22:48:00,2.7,-99.9,29.94,West,265,6.0,12.5,-999,0.00,,,-99.99,FreeWX 2.04,2013-02-19 04:48:00,
2013-02-18 22:53:00,2.7,-99.9,29.94,WSW,255,6.0,13.0,-999,0.00,,,-99.99,FreeWX 2.04,2013-02-19 04:53:00,
2013-02-18 22:58:00,2.7,-99.9,29.94,WSW,246,6.0,13.0,-999,0.00,,,-99.99,FreeWX 2.04,2013-02-19 04:58:00,
2013-02-18 23:03:00,2.7,-99.9,29.94,West,261,6.0,11.0,-999,0.00,,,-99.99,FreeWX 2.04,2013-02-19 05:03:00,
2013-02-18 23:08:00,2.5,-99.9,29.94,West,276,6.0,13.4,-999,0.00,,,-99.99,FreeWX 2.04,2013-02-19 05:08:00,
2013-02-18 23:13:00,2.5,-99.9,29.94,West,279,6.0,14.3,-999,0.00,,,-99.99,FreeWX 2.04,2013-02-19 05:13:00,
2013-02-18 23:18:00,2.5,-99.9,29.94,West,259,6.0,15.2,-999,0.00,,,-99.99,FreeWX 2.04,2013-02-19 05:18:00,
2013-02-18 23:23:00,2.5,-99.9,29.94,WSW,253,6.0,10.5,-999,0.00,,,-99.99,FreeWX 2.04,2013-02-19 05:23:00,
2013-02-18 23:28:00,2.3,-99.9,29.94,West,264,6.0,13.9,-999,0.00,,,-99.99,FreeWX 2.04,2013-02-19 05:28:00,
2013-02-18 23:33:00,2.1,-99.9,29.97,West,271,6.0,13.4,-999,0.00,,,-99.99,FreeWX 2.04,2013-02-19 05:33:00,
2013-02-18 23:38:00,1.9,-99.9,29.97,West,275,6.0,10.5,-999,0.00,,,-99.99,FreeWX 2.04,2013-02-19 05:38:00,
2013-02-18 23:43:00,1.9,-99.9,29.97,West,280,5.0,10.5,-999,0.00,,,-99.99,FreeWX 2.04,2013-02-19 05:43:00,
2013-02-18 23:48:00,1.8,-99.9,29.97,WNW,291,6.0,15.2,-999,0.00,,,-99.99,FreeWX 2.04,2013-02-19 05:48:00,
2013-02-18 23:53:00,1.6,-99.9,29.97,WNW,290,7.0,16.3,-999,0.00,,,-99.99,FreeWX 2.04,2013-02-19 05:53:00,
2013-02-18 23:58:00,1.4,-99.9,29.97,WNW,288,6.0,14.8,-999,0.00,,,-99.99,FreeWX 2.04,2013-02-19 05:58:00,